Regional Weather Roundup
Issued by NWS Sterling, VA

Home | Current Version | Previous Version | Graphics & Text | Print | Product List | Glossary On
Versions: 1 2 3 4 5 6 7 8 9 10 11 12 13 14 15 16 17 18 19 20 21 22 23 24 25 26 27 28 29 30 31 32 33 34 35 36 37 38 39 40 41 42 43 44 45 46 47 48 49 50
000
ASUS41 KLWX 022110
RWRLWX

REGIONAL WEATHER ROUNDUP
NATIONAL WEATHER SERVICE BALTIMORE MD/WASHINGTON DC
400 PM EST MON MAR 02 2015

Note: "FAIR" indicates few or no clouds below 12,000 feet
with no significant weather and/or obstructions to visibility.
 TC=TEMPERATURE CELSIUS

 * =Non NWS site. Station does not report precipitation (e.g. rain,
    snow, etc.), thunder, or fog.

DCZ001-MDZ009-015-VAZ040>042-051-053>054-022200-
WASHINGTON METRO

CITY           SKY/WX    TMP DP  RH WIND       PRES   REMARKS
WASHINGTON NAT MOSUNNY   44  16  32 N17       30.31R
DULLES         MOSUNNY   40  15  36 NW15      30.30R
ANDREWS AFB    SUNNY     40  17  38 N17G26    30.28R
FT BELVOIR     SUNNY     45  15  30 NW9G22    30.30R
QUANTICO       MOSUNNY   46  15  28 N14G26    30.31R
COLLEGE PARK*  SUNNY     43  14  31 NW15G21   30.30S
LEESBURG*      SUNNY     41  19  42 N15       30.31R
MANASSAS*      SUNNY     43  18  36 NW18      30.30R
GAITHERSBURG*  SUNNY     37  14  38 NW16G25   30.33R WCI  28

$$

MDZ006>007-011-014-022200-
BALTIMORE METRO

CITY           SKY/WX    TMP DP  RH WIND       PRES   REMARKS
BWI AIRPORT    MOSUNNY   39  15  37 NW16      30.29R
MD SCIENCE CTR   N/A      1 N/A N/A MISG      30.27F
MARTIN STATE   SUNNY     39  18  41 W20       30.30R
ANNAPOLIS      SUNNY     40  14  34 NW13      30.30R
FORT MEADE*    SUNNY     39  14  35 NW15G21   30.32R

$$

MDZ012-015-019>023-022200-
MARYLAND EASTERN SHORE

CITY           SKY/WX    TMP DP  RH WIND       PRES   REMARKS
OCEAN CITY     MOSUNNY   42  18  37 NW14G23   30.25R
SALISBURY      SUNNY     45  22  40 NW10      30.26R
BAY BRIDGE AP*   N/A     41  18  38 NW13G20   30.30R
CAMBRIDGE*     SUNNY     43  18  36 NW9G18    30.28R
EASTON*        MOSUNNY   43  19  39 NW12G21   30.32R

$$

MDZ017>025-022200-
SOUTHERN MARYLAND

CITY           SKY/WX    TMP DP  RH WIND       PRES   REMARKS
PATUXENT RIVER PTSUNNY   44  20  38 NW15      30.28R
ST INIGOES     MOSUNNY   46  15  28 VRB6      30.28R
LEONARDTOWN*   MOSUNNY   43  16  33 N8        30.30R

$$

MDZ003>005-022200-
NORTH CENTRAL MARYLAND

CITY           SKY/WX    TMP DP  RH WIND       PRES   REMARKS
FREDERICK*     SUNNY     41   9  26 NW15G21   30.33R
HAGERSTOWN APT SUNNY     37  17  44 NW18      30.31R WCI  27
WESTMINSTER*   SUNNY     36  14  41 NW9G16    30.28R WCI  29

$$

MDZ501>502-022200-
WESTERN MARYLAND

CITY           SKY/WX    TMP DP  RH WIND       PRES   REMARKS
OAKLAND*       SUNNY     27  14  59 W10G21    30.24S WCI  17
CUMBERLAND*    NOT AVBL

$$

VAZ025>031-022200-
SHENANDOAH VALLEY

CITY           SKY/WX    TMP DP  RH WIND       PRES   REMARKS
WINCHESTER*    SUNNY     41  12  30 NW14      30.30R
FRONT ROYAL*   FAIR      41  14  33 NW9G21    30.28R
LURAY*         FAIR      46  18  31 N9G16     30.27R
NEW MARKET*    FAIR      42  16  34 NE6       30.27R
STAUNTON*      SUNNY     45  14  28 N8        30.27R
WAYNESBORO*    FAIR      45  15  30 N5        30.24R

$$

WVZ021-048>050-054>055-022200-
EASTERN WEST VIRGINIA PANHANDLE

CITY           SKY/WX    TMP DP  RH WIND       PRES   REMARKS
MARTINSBURG    SUNNY     41  14  33 NW16G31   30.31R
PETERSBURG*    NOT AVBL

$$

VAZ036>039-050-022200-
CENTRAL FOOTHILLS

CITY           SKY/WX    TMP DP  RH WIND       PRES   REMARKS
CHARLOTTESVILL SUNNY     49  12  22 N7        30.25R
CULPEPER*      SUNNY     46  18  31 N10       30.29R
ORANGE*        SUNNY     46  19  34 N8        30.29R
GORDONSVILLE*  FAIR      47  16  28 NE6       30.26R
WARRENTON*     FAIR      46  25  44 NE10      30.29R

$$

VAZ055>057-022200-
NORTH AND CENTRAL PIEDMONT

CITY           SKY/WX    TMP DP  RH WIND       PRES   REMARKS
FREDERICKSBRG* SUNNY     48  17  28 NW8G18    30.28R
STAFFORD*      SUNNY     45  13  27 NW13G20   30.33R

$$

NCZ024-NYZ072-PAZ021-071-VAZ022-071-022200-
OTHER REGIONAL OBSERVATIONS

CITY           SKY/WX    TMP DP  RH WIND       PRES   REMARKS
NEW YORK CITY  SUNNY     38  11  32 NW9G22    30.18R
PHILADELPHIA   MOSUNNY   40  14  34 W20G25    30.25R
PITTSBURGH     MOSUNNY   29  16  58 W13       30.39S WCI  19
ROANOKE        MOSUNNY   48  18  30 NW14      30.29R
RICHMOND       CLOUDY    53  29  39 N8        30.25S
RALEIGH        PTSUNNY   59  37  44 NE7       30.24R

$$

ANZ530>537-022200-
MARINE OBSERVATIONS

STATION/POSITION TIME  TEMP    WIND        PRES
                       AIR SEA DIR/SP/G
                 (UTC) (F)     (DEG/KT/KT) (MB)
THOMAS PT LIGHT  2100   40 32  310/ 16/ 19 1026.8R
BALT KEY BRIDGE  2000   39     280/ 18/ 21 1024.9S
COVE POINT       2000   38     360/ 18/ 20 1025.1R
LEWISETTA        2000   42 33  340/  9/ 13 1025.1R
SOLOMONS ISLAND  2000      33                N/A

$$




USA.gov is the U.S. government's official web portal to all federal, state and local government web resources and services.